Comanche, TX

8:22 AM CDT on July 20, 2017 (GMT -0500)
Comanche

Weather History for KMKN - October, 2013

Change the Weather History Date:

Tuesday, October 8, 2013

  Actual Average (KSEP) Record (KSEP)
Temperature  
Mean Temperature 68 °F -  
Max Temperature 85 °F 78 °F 96 °F (1979)
Min Temperature 52 °F 55 °F 35 °F (2012)
Cooling Degree Days 3    
Growing Degree Days 18 (Base 50)    
Moisture  
Dew Point 42 °F    
Average Humidity 44    
Maximum Humidity 71    
Minimum Humidity 20    
Precipitation  
Precipitation 0.00 in - - ()
Sea Level Pressure  
Sea Level Pressure 30.05 in    
Wind  
Wind Speed 4 mph (SSE)    
Max Wind Speed 13 mph    
Max Gust Speed 17 mph    
Visibility 10 miles    
Events      
Averages and records for this station are not official NWS values.
T = Trace of Precipitation, MM = Missing Value Source: NWS Daily Summary

Daily Weather History Graph

Daily Weather History Graph

Search for Another Location

Airport or City:

Trip Planner

Search our weather history database for the weather conditions in past years. The results will help you decide how hot, cold, wet, or windy it might be!

Date:

Astronomy

Oct. 08, 2013 Rise Set
Actual Time 7:33 AM CDT 7:10 PM CDT
Civil Twilight 7:08 AM CDT 7:34 PM CDT
Nautical Twilight 6:40 AM CDT 8:02 PM CDT
Astronomical Twilight 6:12 AM CDT 8:31 PM CDT
Moon 11:15 AM CDT (10/8) 10:01 PM CDT (10/8)
Length of Visible Light 12h 25m
Length of Day
11h 36m
Waxing Crescent, 16% of the Moon is Illuminated
Oct 8
Waxing Crescent
Oct 11
First Quarter
Oct 18
Full
Oct 26
Last Quarter
Nov 3
New

Hourly Weather History & Observations

Time (CDT) Temp. Dew Point Humidity Pressure Visibility Wind Dir Wind Speed Gust Speed Precip Events Conditions
12:15 AM 60.6 °F 43.2 °F 53% 30.10 in 10.0 mi South 3.5 mph - N/A   Clear
12:35 AM 61.5 °F 42.3 °F 49% 30.10 in 10.0 mi South 4.6 mph - N/A   Clear
12:55 AM 60.1 °F 42.4 °F 52% 30.09 in 10.0 mi South 4.6 mph - N/A   Clear
1:15 AM 59.0 °F 42.8 °F 55% 30.10 in 10.0 mi South 3.5 mph - N/A   Clear
1:35 AM 58.8 °F 43.2 °F 56% 30.10 in 10.0 mi Calm Calm - N/A   Clear
1:55 AM 58.5 °F 41.9 °F 54% 30.10 in 10.0 mi Calm Calm - N/A   Clear
2:15 AM 57.9 °F 42.6 °F 57% 30.10 in 10.0 mi Calm Calm - N/A   Clear
2:35 AM 57.9 °F 42.8 °F 57% 30.10 in 10.0 mi SSE 3.5 mph - N/A   Clear
2:55 AM 55.6 °F 42.8 °F 62% 30.10 in 10.0 mi South 3.5 mph - N/A   Clear
3:15 AM 56.5 °F 41.9 °F 58% 30.09 in 10.0 mi Calm Calm - N/A   Clear
3:35 AM 56.3 °F 41.9 °F 59% 30.09 in 10.0 mi Calm Calm - N/A   Clear
3:55 AM 55.9 °F 41.9 °F 59% 30.09 in 10.0 mi Calm Calm - N/A   Clear
4:15 AM 56.5 °F 41.5 °F 57% 30.09 in 10.0 mi Calm Calm - N/A   Clear
4:35 AM 55.8 °F 42.1 °F 60% 30.08 in 10.0 mi ESE 3.5 mph - N/A   Clear
4:55 AM 54.5 °F 42.6 °F 64% 30.08 in 10.0 mi SE 4.6 mph - N/A   Clear
5:15 AM 52.9 °F 42.8 °F 69% 30.08 in 10.0 mi SSE 3.5 mph - N/A   Clear
5:35 AM 52.2 °F 42.8 °F 70% 30.08 in 10.0 mi South 3.5 mph - N/A   Clear
5:55 AM 53.1 °F 42.4 °F 67% 30.08 in 10.0 mi South 3.5 mph - N/A   Clear
6:15 AM 53.6 °F 42.1 °F 65% 30.09 in 10.0 mi South 3.5 mph - N/A   Clear
6:35 AM 54.1 °F 41.9 °F 63% 30.09 in 10.0 mi South 4.6 mph - N/A   Clear
6:55 AM 52.7 °F 42.1 °F 67% 30.09 in 10.0 mi South 4.6 mph - N/A   Clear
7:15 AM 53.6 °F 41.4 °F 63% 30.09 in 10.0 mi SSE 4.6 mph - N/A   Clear
7:35 AM 53.2 °F 41.9 °F 65% 30.09 in 10.0 mi SSE 4.6 mph - N/A   Clear
7:55 AM 53.2 °F 42.1 °F 66% 30.09 in 10.0 mi SSE 3.5 mph - N/A   Clear
8:15 AM 54.5 °F 42.8 °F 65% 30.09 in 10.0 mi SE 4.6 mph - N/A   Clear
8:35 AM 54.3 °F 45.1 °F 71% 30.09 in 10.0 mi Calm Calm - N/A   Clear
8:55 AM 57.0 °F 45.7 °F 66% 30.10 in 10.0 mi SE 3.5 mph - N/A   Clear
9:15 AM 59.9 °F 47.7 °F 64% 30.11 in 10.0 mi Calm Calm - N/A   Clear
9:35 AM 63.3 °F 47.3 °F 56% 30.11 in 10.0 mi Calm Calm - N/A   Clear
9:55 AM 66.6 °F 48.6 °F 52% 30.11 in 10.0 mi SE 4.6 mph - N/A   Clear
10:15 AM 70.0 °F 49.1 °F 47% 30.10 in 10.0 mi SE 3.5 mph - N/A   Clear
10:35 AM 72.9 °F 48.2 °F 42% 30.10 in 10.0 mi SE 5.8 mph - N/A   Clear
10:55 AM 76.3 °F 42.6 °F 30% 30.10 in 10.0 mi South 9.2 mph - N/A   Clear
11:15 AM 77.0 °F 40.8 °F 27% 30.10 in 10.0 mi South 12.7 mph 16.1 mph N/A   Clear
11:35 AM 78.8 °F 41.0 °F 26% 30.09 in 10.0 mi South 6.9 mph 17.3 mph N/A   Clear
11:55 AM 79.5 °F 40.6 °F 25% 30.08 in 10.0 mi South 8.1 mph - N/A   Clear
12:15 PM 80.4 °F 39.7 °F 23% 30.08 in 10.0 mi SSW 5.8 mph - N/A   Clear
12:35 PM 81.1 °F 39.2 °F 22% 30.07 in 10.0 mi SSW 6.9 mph - N/A   Clear
12:55 PM 81.5 °F 37.9 °F 21% 30.06 in 10.0 mi South 9.2 mph - N/A   Clear
1:15 PM 81.9 °F 37.8 °F 21% 30.06 in 10.0 mi SSE 8.1 mph - N/A   Clear
1:35 PM 82.2 °F 37.8 °F 20% 30.05 in 10.0 mi SSE 4.6 mph 16.1 mph N/A   Clear
1:55 PM 83.7 °F 39.4 °F 21% 30.04 in 10.0 mi South 9.2 mph - N/A   Clear
2:15 PM 83.3 °F 39.0 °F 21% 30.03 in 10.0 mi South 5.8 mph - N/A   Clear
2:35 PM 83.5 °F 39.0 °F 21% 30.02 in 10.0 mi South 6.9 mph - N/A   Clear
2:55 PM 84.4 °F 38.8 °F 20% 30.01 in 10.0 mi South 10.4 mph - N/A   Clear
3:15 PM 84.6 °F 39.2 °F 20% 30.00 in 10.0 mi SSW 9.2 mph - N/A   Clear
3:35 PM 84.0 °F 38.5 °F 20% 30.00 in 10.0 mi SSW 8.1 mph - N/A   Clear
3:55 PM 84.4 °F 39.4 °F 20% 29.99 in 10.0 mi SSW 6.9 mph - N/A   Clear
4:15 PM 84.7 °F 39.9 °F 20% 29.99 in 10.0 mi SSE 9.2 mph - N/A   Clear
4:35 PM 84.0 °F 38.1 °F 20% 29.99 in 10.0 mi SSE 9.2 mph - N/A   Clear
4:55 PM 84.2 °F 39.4 °F 20% 29.98 in 10.0 mi SE 6.9 mph - N/A   Clear
5:15 PM 83.1 °F 38.8 °F 21% 29.98 in 10.0 mi South 8.1 mph - N/A   Clear
5:35 PM 82.2 °F 39.2 °F 22% 29.98 in 10.0 mi South 8.1 mph - N/A   Clear
5:55 PM 81.5 °F 41.0 °F 24% 29.98 in 10.0 mi SSE 10.4 mph - N/A   Clear
6:15 PM 79.0 °F 41.5 °F 26% 29.98 in 10.0 mi SSE 6.9 mph 10.4 mph N/A   Clear
6:35 PM 77.7 °F 41.9 °F 28% 29.98 in 10.0 mi SSE 6.9 mph - N/A   Clear
6:55 PM 74.5 °F 42.3 °F 31% 29.98 in 10.0 mi SSE 6.9 mph - N/A   Clear
7:15 PM 72.7 °F 42.3 °F 33% 29.98 in 10.0 mi SE 8.1 mph - N/A   Clear
7:35 PM 71.1 °F 43.0 °F 36% 29.98 in 10.0 mi SSE 8.1 mph - N/A   Clear
7:55 PM 70.7 °F 43.2 °F 37% 29.98 in 10.0 mi SSE 8.1 mph - N/A   Clear
8:15 PM 69.8 °F 43.2 °F 38% 29.98 in 10.0 mi SSE 5.8 mph - N/A   Clear
8:35 PM 69.3 °F 43.3 °F 39% 29.99 in 10.0 mi SSE 5.8 mph - N/A   Clear
8:55 PM 68.0 °F 43.7 °F 41% 30.00 in 10.0 mi SSE 5.8 mph - N/A   Clear
9:15 PM 66.6 °F 44.4 °F 45% 30.00 in 10.0 mi SSE 6.9 mph - N/A   Clear
9:35 PM 65.7 °F 44.6 °F 47% 30.00 in 10.0 mi SSE 5.8 mph - N/A   Clear
9:55 PM 64.8 °F 45.0 °F 49% 30.00 in 10.0 mi SSE 6.9 mph - N/A   Clear
10:15 PM 64.4 °F 45.0 °F 49% 30.00 in 10.0 mi SE 5.8 mph - N/A   Clear
10:35 PM 63.0 °F 45.5 °F 53% 30.00 in 10.0 mi SSE 6.9 mph - N/A   Clear
10:55 PM 63.3 °F 45.7 °F 53% 30.00 in 10.0 mi SSE 6.9 mph - N/A   Clear
11:15 PM 62.1 °F 46.0 °F 56% 30.01 in 10.0 mi SE 8.1 mph - N/A   Clear
11:35 PM 61.9 °F 46.0 °F 56% 30.00 in 10.0 mi SE 6.9 mph - N/A   Clear
11:55 PM 63.1 °F 46.0 °F 54% 30.00 in 10.0 mi SSE 9.2 mph - N/A   Clear